Weather Service Report


759 
ASUS42 KRAH 241110
RWRRAH
NORTH CAROLINA WEATHER ROUNDUP
NATIONAL WEATHER SERVICE RALEIGH NC
700 AM EDT WED AUG 24 2016

NOTE: "FAIR" INDICATES FEW OR NO CLOUDS BELOW 12,000 FEET WITH NO
SIGNIFICANT WEATHER AND/OR OBSTRUCTIONS TO VISIBILITY.

NCZ001-053-055-056-065-067-241200-
WESTERN NORTH CAROLINA
  
CITY           SKY/WX    TMP DP  RH WIND       PRES   REMARKS
ASHEVILLE      PTCLDY    63  61  93 CALM      30.35R                  
JEFFERSON      MOCLDY    56  56  97 CALM      30.39R                  
MORGANTON      CLOUDY    62  62 100 CALM      30.36R FOG              
HICKORY        FOG       64  64 100 CALM      30.31R VSB 3/4          
RUTHERFORDTON    N/A     65  65 100 CALM      30.32R                  
MOUNT AIRY     CLEAR     64  62  93 CALM      30.34R                  
BOONE          CLEAR     54  54 100 CALM      30.40R                  
$$
 
NCZ021-022-025-041-071-084-088-241200-
CENTRAL NORTH CAROLINA
  
CITY           SKY/WX    TMP DP  RH WIND       PRES   REMARKS
CHARLOTTE      PTCLDY    72  65  78 SE7       30.30R                  
GREENSBORO     PTCLDY    68  65  90 S6        30.31R                  
WINSTON-SALEM  MOCLDY    66  62  87 CALM      30.32R                  
RALEIGH-DURHAM PTCLDY    65  62  90 CALM      30.30R                  
FORT BRAGG     CLEAR     66  64  93 CALM      30.28S                  
FAYETTEVILLE   CLEAR     67  64  90 N3        30.28R                  
BURLINGTON     CLEAR     63  63 100 CALM      30.31R                  
LAURINBURG     CLEAR     67  64  90 CALM      30.30R                  
$$
 
NCZ011-015-027-028-043-044-047-080-103-241200-
NORTHEASTERN NORTH CAROLINA
  
CITY           SKY/WX    TMP DP  RH WIND       PRES   REMARKS
ROCKY MT-WILSO FOG       62  62 100 CALM      30.30R VSB 1/4          
GREENVILLE     CLEAR     61  61 100 CALM      30.29S FOG              
WASHINGTON     CLEAR     61  59  95 CALM      30.29R                  
ELIZABETH CITY CLEAR     64  62  93 NW3       30.29R                  
MANTEO         CLEAR     74  66  76 NE7       30.26S                  
CAPE HATTERAS  CLEAR     75  68  78 NE6       30.23F                  
$$
 
NCZ078-087-090-091-093-098-101-241200-
SOUTHEASTERN NORTH CAROLINA
  
CITY           SKY/WX    TMP DP  RH WIND       PRES   REMARKS
LUMBERTON      CLEAR     66  63  90 CALM      30.27R                  
GOLDSBORO      CLEAR     65  65 100 CALM      30.28R                  
KINSTON        CLEAR     61  61 100 CALM      30.30R                  
KENANSVILLE    NOT AVBL                                               
NEW BERN       CLEAR     66  62  87 NE3       30.28R                  
CHERRY POINT   PTCLDY    71  63  75 NE8       30.26R                  
BEAUFORT       PTCLDY    68  64  87 NE5       30.25R                  
JACKSONVILLE   CLEAR     67  61  81 N6        30.26R                  
WILMINGTON     CLEAR     66  62  87 N5        30.25R                  
$$

  

Return to Home page


Western Regional Climate Center, wrcc@dri.edu